Time,TemperatureF,DewpointF,PressureIn,WindDirection,WindDirectionDegrees,WindSpeedMPH,WindSpeedGustMPH,Humidity,HourlyPrecipIn,Conditions,Clouds,dailyrainin,SoftwareType,DateUTC
2013-10-28 00:14:00,42.0,33.0,30.06,SSW,203,0.0,0.0,70,0.00,,,0.00,,2013-10-28 04:14:00,
2013-10-28 00:23:00,42.0,33.0,30.08,SSW,203,0.0,0.0,71,0.00,,,0.00,,2013-10-28 04:23:00,
2013-10-28 00:53:00,41.0,33.0,30.08,SSW,203,0.0,0.0,72,0.00,,,0.00,,2013-10-28 04:53:00,
2013-10-28 01:13:00,41.0,33.0,30.07,SSW,203,0.0,0.0,73,0.00,,,0.00,,2013-10-28 05:13:00,
2013-10-28 01:22:00,41.0,33.0,30.08,SSW,203,0.0,0.0,73,0.00,,,0.00,,2013-10-28 05:22:00,
2013-10-28 01:53:00,41.0,33.0,30.08,SSW,203,0.0,0.0,73,0.00,,,0.00,,2013-10-28 05:53:00,
2013-10-28 02:12:00,41.0,33.0,30.09,SSW,203,0.0,0.0,72,0.00,,,0.00,,2013-10-28 06:12:00,
2013-10-28 02:22:00,41.0,32.0,30.09,SSW,203,0.0,0.0,71,0.00,,,0.00,,2013-10-28 06:22:00,
2013-10-28 02:43:00,41.0,32.0,30.08,SSW,203,0.0,0.0,71,0.00,,,0.00,,2013-10-28 06:43:00,
2013-10-28 02:52:00,41.0,32.0,30.08,SSW,203,0.0,0.0,71,0.00,,,0.00,,2013-10-28 06:52:00,
2013-10-28 03:12:00,40.0,31.0,30.08,SSW,203,0.0,0.0,71,0.00,,,0.00,,2013-10-28 07:12:00,
2013-10-28 03:22:00,40.0,32.0,30.08,SSW,203,0.0,0.0,72,0.00,,,0.00,,2013-10-28 07:22:00,
2013-10-28 03:52:00,39.0,31.0,30.08,SSW,203,0.0,0.0,74,0.00,,,0.00,,2013-10-28 07:52:00,
2013-10-28 04:12:00,38.0,31.0,30.08,SSW,203,0.0,0.0,75,0.00,,,0.00,,2013-10-28 08:12:00,
2013-10-28 04:22:00,38.0,31.0,30.08,SSW,203,0.0,0.0,76,0.00,,,0.00,,2013-10-28 08:22:00,
2013-10-28 04:42:00,37.0,30.0,30.08,SSW,203,0.0,0.0,77,0.00,,,0.00,,2013-10-28 08:42:00,
2013-10-28 04:52:00,37.0,31.0,30.09,SSW,203,0.0,0.0,78,0.00,,,0.00,,2013-10-28 08:52:00,
2013-10-28 05:11:00,37.0,31.0,30.09,SSW,203,0.0,0.0,79,0.00,,,0.00,,2013-10-28 09:11:00,
2013-10-28 05:22:00,37.0,31.0,30.09,SSW,203,0.0,0.0,79,0.00,,,0.00,,2013-10-28 09:22:00,
2013-10-28 05:53:00,37.0,32.0,30.09,SSW,203,0.0,0.0,81,0.00,,,0.00,,2013-10-28 09:53:00,
2013-10-28 06:23:00,37.0,32.0,30.09,SSW,203,0.0,0.0,81,0.00,,,0.00,,2013-10-28 10:23:00,
2013-10-28 06:43:00,37.0,32.0,30.10,SSW,203,0.0,0.0,82,0.00,,,0.00,,2013-10-28 10:43:00,
2013-10-28 06:53:00,37.0,32.0,30.11,SSW,203,0.0,0.0,82,0.00,,,0.00,,2013-10-28 10:53:00,
2013-10-28 07:12:00,37.0,32.0,30.11,SSW,202,0.0,1.0,81,0.00,,,0.00,,2013-10-28 11:12:00,
2013-10-28 07:22:00,37.0,32.0,30.11,SSW,203,0.0,0.0,81,0.00,,,0.00,,2013-10-28 11:22:00,
2013-10-28 07:42:00,37.0,32.0,30.12,SSW,203,0.0,0.0,82,0.00,,,0.00,,2013-10-28 11:42:00,
2013-10-28 07:52:00,36.0,31.0,30.12,SSW,203,0.0,0.0,82,0.00,,,0.00,,2013-10-28 11:52:00,
2013-10-28 08:12:00,36.0,31.0,30.14,SSW,203,0.0,0.0,82,0.00,,,0.00,,2013-10-28 12:12:00,
2013-10-28 08:21:00,37.0,32.0,30.14,SSW,203,0.0,0.0,83,0.00,,,0.00,,2013-10-28 12:21:00,
2013-10-28 08:42:00,39.0,34.0,30.14,SSW,203,0.0,0.0,82,0.00,,,0.00,,2013-10-28 12:42:00,
2013-10-28 08:52:00,39.0,34.0,30.15,SSW,203,0.0,0.0,81,0.00,,,0.00,,2013-10-28 12:52:00,
2013-10-28 09:11:00,41.0,34.0,30.16,SSW,213,2.0,4.0,76,0.00,,,0.00,,2013-10-28 13:11:00,
2013-10-28 09:22:00,42.0,34.0,30.16,SW,218,2.0,4.0,73,0.00,,,0.00,,2013-10-28 13:22:00,
2013-10-28 09:42:00,44.0,33.0,30.17,SW,233,0.0,5.0,65,0.00,,,0.00,,2013-10-28 13:42:00,
2013-10-28 09:52:00,46.0,33.0,30.17,SSW,197,0.0,4.0,60,0.00,,,0.00,,2013-10-28 13:52:00,
2013-10-28 10:11:00,47.0,33.0,30.17,SSW,206,1.0,4.0,57,0.00,,,0.00,,2013-10-28 14:11:00,
2013-10-28 10:22:00,48.0,32.0,30.17,SSW,208,3.0,7.0,54,0.00,,,0.00,,2013-10-28 14:22:00,
2013-10-28 10:42:00,49.0,33.0,30.17,SW,225,0.0,6.0,53,0.00,,,0.00,,2013-10-28 14:42:00,
2013-10-28 10:52:00,51.0,33.0,30.17,SSW,211,1.0,3.0,49,0.00,,,0.00,,2013-10-28 14:52:00,
2013-10-28 11:11:00,53.0,33.0,30.17,SSW,200,1.0,5.0,47,0.00,,,0.00,,2013-10-28 15:11:00,
2013-10-28 11:22:00,51.0,32.0,30.17,SSW,195,2.0,7.0,48,0.00,,,0.00,,2013-10-28 15:22:00,
2013-10-28 11:43:00,53.0,33.0,30.17,SSW,204,2.0,6.0,47,0.00,,,0.00,,2013-10-28 15:43:00,
2013-10-28 11:53:00,54.0,33.0,30.16,South,189,1.0,5.0,45,0.00,,,0.00,,2013-10-28 15:53:00,
2013-10-28 12:13:00,56.0,33.0,30.16,SW,231,1.0,4.0,42,0.00,,,0.00,,2013-10-28 16:13:00,
2013-10-28 12:23:00,56.0,33.0,30.15,SW,234,1.0,7.0,41,0.00,,,0.00,,2013-10-28 16:23:00,
2013-10-28 12:43:00,58.0,33.0,30.15,SSW,208,1.0,4.0,38,0.00,,,0.00,,2013-10-28 16:43:00,
2013-10-28 12:53:00,58.0,33.0,30.15,West,274,0.0,5.0,38,0.00,,,0.00,,2013-10-28 16:53:00,
2013-10-28 13:12:00,58.0,34.0,30.14,SSW,209,0.0,4.0,40,0.00,,,0.00,,2013-10-28 17:12:00,
2013-10-28 13:23:00,58.0,33.0,30.14,NNW,332,1.0,6.0,39,0.00,,,0.00,,2013-10-28 17:23:00,
2013-10-28 13:42:00,58.0,34.0,30.13,SSE,162,0.0,5.0,40,0.00,,,0.00,,2013-10-28 17:42:00,
2013-10-28 13:52:00,58.0,33.0,30.13,NW,317,0.0,6.0,38,0.00,,,0.00,,2013-10-28 17:52:00,
2013-10-28 14:12:00,58.0,32.0,30.12,West,277,1.0,7.0,37,0.00,,,0.00,,2013-10-28 18:12:00,
2013-10-28 14:22:00,58.0,33.0,30.12,South,191,0.0,8.0,38,0.00,,,0.00,,2013-10-28 18:22:00,
2013-10-28 14:52:00,59.0,32.0,30.12,SW,231,0.0,5.0,36,0.00,,,0.00,,2013-10-28 18:52:00,
2013-10-28 15:11:00,59.0,33.0,30.13,South,184,1.0,2.0,37,0.00,,,0.00,,2013-10-28 19:11:00,
2013-10-28 15:22:00,59.0,32.0,30.12,North,355,1.0,3.0,36,0.00,,,0.00,,2013-10-28 19:22:00,
2013-10-28 15:42:00,59.0,32.0,30.12,South,184,0.0,2.0,36,0.00,,,0.00,,2013-10-28 19:42:00,
2013-10-28 15:52:00,59.0,33.0,30.12,WSW,242,1.0,3.0,37,0.00,,,0.00,,2013-10-28 19:52:00,
2013-10-28 16:12:00,59.0,33.0,30.12,SW,219,1.0,4.0,37,0.00,,,0.00,,2013-10-28 20:12:00,
2013-10-28 16:22:00,59.0,32.0,30.13,WSW,257,0.0,4.0,36,0.00,,,0.00,,2013-10-28 20:22:00,
2013-10-28 16:52:00,58.0,31.0,30.14,West,272,0.0,4.0,36,0.00,,,0.00,,2013-10-28 20:52:00,
2013-10-28 17:22:00,58.0,31.0,30.14,East,97,0.0,2.0,36,0.00,,,0.00,,2013-10-28 21:22:00,
2013-10-28 17:43:00,57.0,32.0,30.15,SE,128,0.0,3.0,39,0.00,,,0.00,,2013-10-28 21:43:00,
2013-10-28 17:53:00,57.0,32.0,30.15,SE,128,0.0,1.0,39,0.00,,,0.00,,2013-10-28 21:53:00,
2013-10-28 18:23:00,56.0,33.0,30.17,NE,38,0.0,0.0,42,0.00,,,0.00,,2013-10-28 22:23:00,
2013-10-28 18:53:00,54.0,33.0,30.19,ENE,78,0.0,3.0,45,0.00,,,0.00,,2013-10-28 22:53:00,
2013-10-28 19:22:00,53.0,33.0,30.20,WNW,302,0.0,3.0,46,0.00,,,0.00,,2013-10-28 23:22:00,
2013-10-28 19:42:00,52.0,33.0,30.20,NNW,335,0.0,1.0,48,0.00,,,0.00,,2013-10-28 23:42:00,
2013-10-28 19:52:00,52.0,33.0,30.22,NNW,335,0.0,0.0,49,0.00,,,0.00,,2013-10-28 23:52:00,
2013-10-28 20:22:00,51.0,34.0,30.22,East,85,0.0,2.0,51,0.00,,,0.00,,2013-10-29 00:22:00,
2013-10-28 20:42:00,51.0,34.0,30.22,East,84,0.0,2.0,52,0.00,,,0.00,,2013-10-29 00:42:00,
2013-10-28 20:52:00,50.0,34.0,30.23,NE,38,0.0,1.0,53,0.00,,,0.00,,2013-10-29 00:52:00,
2013-10-28 21:11:00,50.0,34.0,30.23,NE,38,0.0,1.0,54,0.00,,,0.00,,2013-10-29 01:11:00,
2013-10-28 21:22:00,50.0,34.0,30.23,East,85,0.0,2.0,54,0.00,,,0.00,,2013-10-29 01:22:00,
2013-10-28 21:42:00,49.0,34.0,30.23,East,85,0.0,0.0,55,0.00,,,0.00,,2013-10-29 01:42:00,
2013-10-28 21:52:00,49.0,34.0,30.24,East,85,0.0,0.0,56,0.00,,,0.00,,2013-10-29 01:52:00,
2013-10-28 22:11:00,49.0,34.0,30.24,East,85,0.0,0.0,56,0.00,,,0.00,,2013-10-29 02:11:00,
2013-10-28 22:21:00,49.0,34.0,30.25,East,85,0.0,0.0,57,0.00,,,0.00,,2013-10-29 02:21:00,
2013-10-28 22:44:00,48.0,33.0,30.25,North,354,0.0,3.0,56,0.00,,,0.00,,2013-10-29 02:44:00,
2013-10-28 22:53:00,48.0,33.0,30.26,NNE,12,0.0,2.0,56,0.00,,,0.00,,2013-10-29 02:53:00,
2013-10-28 23:14:00,48.0,33.0,30.26,East,82,0.0,1.0,56,0.00,,,0.00,,2013-10-29 03:14:00,
2013-10-28 23:27:00,48.0,33.0,30.27,East,82,0.0,0.0,56,0.00,,,0.00,,2013-10-29 03:27:00,
2013-10-28 23:40:00,-999.0,-99.9,30.27,NE,35,0.0,3.0,54,0.00,,,0.00,,2013-10-29 03:40:00,
2013-10-28 23:48:00,47.0,31.0,30.27,NE,35,0.0,3.0,54,0.00,,,0.00,,2013-10-29 03:48:00,
2013-10-28 23:55:00,47.0,31.0,30.27,ENE,71,0.0,2.0,54,0.00,,,0.00,,2013-10-29 03:55:00,